Hourly Data Report for September 28, 2017

All times are specified in Local Standard Time (LST). Add 1 hour to adjust for Daylight Saving Time where and when it is observed.

ST. PETERS
PRINCE EDWARD ISLAND

46°27'01.000" N
62°34'33.000" W
29.70 m
8300562
71310
ZSP

Download Data

Hourly Data (September 2017)
Hourly Data Report for September 28, 2017
Temp Definition
°C
Dew Point Temp Definition
°C
Rel Hum Definition
%
Wind Dir Definition
10's deg

Wind Spd Definition
km/h
Visibility Definition
km
Stn Press Definition
kPa
Hmdx Definition


Wind Chill Definition


Weather Definition


TIME
00:00 20.2 18.3 89 20 27   100.12 26   LegendNANA
01:00 20.9 18.8 88 22 27   100.14 28   LegendNANA
02:00 20.5 19.0 91 23 20   100.12 27   LegendNANA
03:00 19.7 18.0 90 27 10   100.08     LegendNANA
04:00 19.8 18.5 92 21 9   100.05     LegendNANA
05:00 19.6 18.6 94 21 7   99.92     LegendNANA
06:00 19.3 18.5 95 19 7   99.95     LegendNANA
07:00 18.6 18.0 96 28 5   99.91     LegendNANA
08:00 18.5 17.9 96 28 3   99.88     LegendNANA
09:00 19.1 18.2 95 17 10   99.83     LegendNANA
10:00 18.7 16.9 89 26 9   99.89     LegendNANA
11:00 17.6 14.2 81 30 17   99.91     LegendNANA
12:00 18.6 13.5 72 29 20   99.89     LegendNANA
13:00 18.0 10.7 62 29 20   99.89     LegendNANA
14:00 17.2 11.4 69 31 18   99.84     LegendNANA
15:00 17.5 10.0 61 30 21   99.89     LegendNANA
16:00 16.2 10.8 71 31 18   99.93     LegendNANA
17:00 15.6 10.8 73 31 15   99.93     LegendNANA
18:00 15.2 10.6 74 32 12   99.93     LegendNANA
19:00 14.8 10.4 75 33 15   99.95     LegendNANA
20:00 14.6 9.1 70 32 21   100.00     LegendNANA
21:00 14.2 8.5 69 32 21   100.01     LegendNANA
22:00 13.9 7.9 67 31 22   100.02     LegendNANA
23:00 13.6 7.1 65 31 20   100.02     LegendNANA

Notes on Data Quality.

Legend

  • E = Estimated
  • M = Missing
  • NA = Not Available
  • ‡ = Partner data that is not subject to review by the National Climate Archives
Date modified: